GW6360 Weather Reports


time (UTC)temp
C
wind
direction
speed
KPH
gust
KPH
rain 1hr
cm
rain 24hr
cm
rain mn
cm
humidity
%
barometer
mb
20260505052100 10 206 24.1 32.2 0.00 0.00 0.00 89 1012.2
20260505051556 10 206 24.1 32.2 0.00 0.00 0.00 89 1012.1
20260505051054 10 206 24.1 32.2 0.00 0.00 0.00 89 1012.2
20260505050552 10 206 24.1 32.2 0.00 0.00 0.00 89 1012.1
20260505041520 10 215 29.0 30.6 0.00 0.00 0.00 88 1012.3
20260505041017 10 212 29.0 32.2 0.00 0.00 0.00 88 1012.3
20260505040514 11 210 29.0 33.8 0.00 0.00 0.00 87 1012.3
20260505040012 11 202 32.2 38.6 0.00 0.00 0.00 88 1012.2
20260505035508 10 212 29.0 33.8 0.00 0.00 0.00 88 1012.3
20260505035005 10 201 29.0 30.6 0.00 0.00 0.00 88 1012.3
20260505034501 10 203 24.1 32.2 0.00 0.00 0.00 87 1012.3
20260505033958 10 201 25.7 35.4 0.00 0.00 0.00 88 1012.1
20260505033455 10 207 30.6 32.2 0.00 0.00 0.00 88 1012.3
20260505032953 10 200 17.7 35.4 0.00 0.00 0.00 88 1012.2
20260505032450 10 205 29.0 30.6 0.00 0.00 0.00 88 1012.3
20260505031946 10 212 29.0 33.8 0.00 0.00 0.00 89 1012.5
20260505031443 10 209 24.1 33.8 0.00 0.00 0.00 88 1012.5
20260505030940 10 196 22.5 30.6 0.00 0.00 0.00 88 1012.4
20260505030436 10 200 19.3 32.2 0.00 0.00 0.00 88 1012.5
20260505025931 10 196 16.1 30.6 0.00 0.00 0.00 88 1012.4
20260505025429 10 215 25.7 30.6 0.00 0.00 0.00 88 1012.5
20260505024928 10 211 24.1 33.8 0.00 0.00 0.00 88 1012.5
20260505024425 10 206 20.9 27.4 0.00 0.00 0.00 88 1012.5
20260505023922 10 209 20.9 24.1 0.00 0.00 0.00 88 1012.4
20260505023419 10 210 19.3 27.4 0.00 0.00 0.00 88 1012.6
20260505022916 10 203 19.3 29.0 0.00 0.00 0.00 88 1012.5
20260505022414 10 203 22.5 33.8 0.00 0.00 0.00 88 1012.4
20260505021910 10 202 22.5 25.7 0.00 0.00 0.00 88 1012.6
20260505021407 10 209 24.1 27.4 0.00 0.00 0.00 88 1012.7
20260505020903 10 215 20.9 25.7 0.00 0.00 0.00 88 1012.7
20260505020358 10 209 29.0 30.6 0.00 0.00 0.00 87 1012.6
20260505015855 10 209 20.9 30.6 0.00 0.00 0.00 87 1012.8
20260505015352 10 198 19.3 27.4 0.00 0.00 0.00 87 1012.7
20260505014850 10 204 22.5 27.4 0.00 0.00 0.00 87 1012.7
20260505014347 10 208 20.9 27.4 0.00 0.00 0.00 86 1012.5
20260505013843 10 206 24.1 29.0 0.00 0.00 0.00 86 1012.5
20260505013340 10 197 19.3 27.4 0.00 0.00 0.00 86 1012.6
20260505012839 10 210 22.5 27.4 0.00 0.00 0.00 85 1012.5
20260505012337 10 209 25.7 30.6 0.00 0.00 0.00 85 1012.5
20260505011832 10 212 33.8 35.4 0.00 0.00 0.00 85 1012.3
20260505011329 10 215 33.8 35.4 0.00 0.00 0.00 85 1012.4
20260505010825 10 212 33.8 37.0 0.00 0.00 0.00 85 1012.2
20260505010321 10 208 24.1 30.6 0.00 0.00 0.00 84 1012.2
20260505005817 10 215 27.4 32.2 0.00 0.00 0.00 84 1012.0
20260505005315 10 215 24.1 33.8 0.00 0.00 0.00 83 1011.9
20260505004812 10 214 27.4 37.0 0.00 0.00 0.00 83 1011.9
20260505004308 10 205 32.2 37.0 0.00 0.00 0.00 82 1011.7
20260505003806 11 219 25.7 33.8 0.00 0.00 0.00 82 1011.8
20260505003303 11 220 29.0 32.2 0.00 0.00 0.00 81 1011.7
20260505002759 11 221 27.4 27.4 0.00 0.00 0.00 81 1011.6
20260505002256 11 206 27.4 33.8 0.00 0.00 0.00 80 1011.5
20260505001754 11 198 24.1 35.4 0.00 0.00 0.00 80 1011.5
20260505001251 11 208 35.4 35.4 0.00 0.00 0.00 78 1011.4
20260505000748 11 208 35.4 35.4 0.00 0.00 0.00 78 1011.3
20260505000246 11 208 35.4 35.4 0.00 0.00 0.00 78 1011.3
20260504235742 -17 0.0 0.0 0.00 0.00 0.00 1011.1
20260504235238 -17 0.0 0.0 0.00 0.00 0.00 1011.1
20260504234736 -17 0.0 0.0 0.00 0.00 0.00 1011.0
20260504234233 -17 0.0 0.0 0.00 0.00 0.00 1011.2
20260504233729 -17 0.0 0.0 0.00 0.00 0.00 1011.0
20260504233225 -17 0.0 0.0 0.00 0.00 0.00 1011.1
20260504232723 -17 0.0 0.0 0.00 0.00 0.00 1011.1
20260504232219 -17 0.0 0.0 0.00 0.00 0.00 1010.8
20260504231716 -17 0.0 0.0 0.00 0.00 0.00 1010.9
20260504231213 -17 0.0 0.0 0.00 0.00 0.00 1011.0
20260504230709 -17 0.0 0.0 0.00 0.00 0.00 1011.0
20260504230208 -17 0.0 0.0 0.00 0.00 0.00 1010.9
20260504225706 -17 0.0 0.0 0.00 0.00 0.00 1010.8
20260504225201 -17 0.0 0.0 0.00 0.00 0.00 1010.8
20260504224659 -17 0.0 0.0 0.00 0.00 0.00 1010.9
20260504224156 -17 0.0 0.0 0.00 0.00 0.00 1010.9
20260504223653 -17 0.0 0.0 0.00 0.00 0.00 1010.9
20260504223148 -17 0.0 0.0 0.00 0.00 0.00 1010.9
20260504222645 -17 0.0 0.0 0.00 0.00 0.00 1010.8
20260504222142 -17 0.0 0.0 0.00 0.00 0.00 1011.0
20260504221640 -17 0.0 0.0 0.00 0.00 0.00 1010.9
20260504221136 -17 0.0 0.0 0.00 0.00 0.00 1011.0
20260504220633 -17 0.0 0.0 0.00 0.00 0.00 1011.0
20260504220131 12 209 29.0 35.4 0.00 0.00 0.00 73 1011.1
20260504215626 12 209 29.0 35.4 0.00 0.00 0.00 73 1011.0
20260504215124 12 209 29.0 35.4 0.00 0.00 0.00 73 1011.1
20260504214620 12 209 29.0 35.4 0.00 0.00 0.00 73 1010.9
20260504214116 12 209 29.0 35.4 0.00 0.00 0.00 73 1010.9
20260504213613 12 209 29.0 35.4 0.00 0.00 0.00 73 1010.7
20260504213110 12 209 29.0 35.4 0.00 0.00 0.00 73 1010.9
20260504212606 12 209 29.0 35.4 0.00 0.00 0.00 73 1010.8
20260504212103 12 209 29.0 35.4 0.00 0.00 0.00 73 1010.9
20260504211600 12 209 29.0 35.4 0.00 0.00 0.00 73 1011.1
20260504211057 12 209 29.0 35.4 0.00 0.00 0.00 73 1010.8
20260504210554 12 209 29.0 35.4 0.00 0.00 0.00 73 1010.7
20260504210050 11 215 35.4 35.4 0.00 0.00 0.00 73 1010.9
20260504205548 11 210 33.8 45.1 0.00 0.00 0.00 75 1010.8
20260504205046 11 210 33.8 45.1 0.00 0.00 0.00 75 1010.8
20260504204544 11 210 33.8 45.1 0.00 0.00 0.00 75 1010.7
20260504204043 11 210 33.8 45.1 0.00 0.00 0.00 75 1010.7
20260504203540 11 210 33.8 45.1 0.00 0.00 0.00 75 1010.6
20260504203038 11 202 27.4 45.1 0.00 0.00 0.00 75 1010.6
20260504202533 11 203 37.0 46.7 0.00 0.00 0.00 74 1010.5
20260504202030 11 207 32.2 38.6 0.00 0.00 0.00 75 1010.5
20260504201527 11 212 38.6 46.7 0.00 0.00 0.00 75 1010.5
20260504201025 11 206 43.5 48.3 0.00 0.00 0.00 75 1010.5
20260504200521 11 210 37.0 41.8 0.00 0.00 0.00 74 1010.8
20260504200018 11 219 37.0 38.6 0.00 0.00 0.00 74 1010.5
20260504195514 11 215 41.8 57.9 0.00 0.00 0.00 74 1010.6
20260504195011 11 201 32.2 40.2 0.00 0.00 0.00 74 1010.7
20260504194507 11 210 32.2 35.4 0.00 0.00 0.00 74 1010.4
20260504194002 12 211 27.4 35.4 0.00 0.00 0.00 72 1010.5
20260504193500 12 211 27.4 35.4 0.00 0.00 0.00 72 1010.6
20260504192959 12 211 27.4 35.4 0.00 0.00 0.00 72 1010.6
20260504192455 12 203 38.6 41.8 0.00 0.00 0.00 72 1010.4
20260504191955 12 203 38.6 41.8 0.00 0.00 0.00 72 1010.6
20260504191452 12 204 38.6 41.8 0.00 0.00 0.00 74 1010.6
20260504190947 12 208 33.8 33.8 0.00 0.00 0.00 74 1010.8
20260504190443 12 213 32.2 37.0 0.00 0.00 0.00 75 1010.9
20260504185940 12 214 29.0 35.4 0.00 0.00 0.00 76 1011.1
20260504185437 12 214 29.0 35.4 0.00 0.00 0.00 76 1010.9
20260504184933 11 200 33.8 37.0 0.00 0.00 0.00 77 1011.0
20260504184429 11 200 33.8 37.0 0.00 0.00 0.00 77 1011.0
20260504183925 11 200 33.8 37.0 0.00 0.00 0.00 77 1011.1
20260504183422 12 210 29.0 41.8 0.00 0.00 0.00 75 1011.3
20260504182920 12 210 29.0 41.8 0.00 0.00 0.00 75 1011.2
20260504182417 12 210 29.0 41.8 0.00 0.00 0.00 75 1011.3
20260504181914 12 211 37.0 43.5 0.00 0.00 0.00 75 1011.4
20260504181411 12 211 37.0 43.5 0.00 0.00 0.00 75 1011.2
20260504180910 12 211 37.0 43.5 0.00 0.00 0.00 75 1011.1
20260504180408 12 211 37.0 43.5 0.00 0.00 0.00 75 1011.2
20260504175906 12 211 37.0 43.5 0.00 0.00 0.00 75 1011.0
20260504175403 12 211 37.0 43.5 0.00 0.00 0.00 75 1011.1
20260504174900 12 211 37.0 43.5 0.00 0.00 0.00 75 1011.1
20260504174358 12 209 29.0 33.8 0.00 0.00 0.00 75 1011.3
20260504173855 12 212 40.2 40.2 0.00 0.00 0.00 75 1011.1
20260504173351 12 213 38.6 41.8 0.00 0.00 0.00 75 1011.3
20260504172849 12 214 38.6 45.1 0.00 0.00 0.00 75 1011.2
20260504172345 11 214 33.8 41.8 0.00 0.00 0.00 75 1011.1
20260504171841 11 205 35.4 46.7 0.00 0.00 0.00 75 1011.3
20260504171338 11 211 29.0 46.7 0.00 0.00 0.00 76 1011.3
20260504170835 11 210 41.8 45.1 0.00 0.00 0.00 76 1011.4
20260504170332 11 215 38.6 49.9 0.00 0.00 0.00 76 1011.4
20260504160250 12 226 24.1 32.2 0.00 0.00 0.00 70 1011.6
20260504150716 12 220 29.0 43.5 0.00 0.00 0.00 65 1012.1
20260504150212 12 210 29.0 40.2 0.00 0.00 0.00 64 1012.2
20260504141142 12 208 24.1 29.0 0.00 0.00 0.00 60 1012.3
20260504140639 12 204 27.4 29.0 0.00 0.00 0.00 63 1012.3
20260504140134 12 213 24.1 27.4 0.00 0.00 0.00 63 1012.2
20260504130602 11 204 30.6 43.5 0.00 0.00 0.00 68 1012.5
20260504110450 -17 0.0 0.0 0.00 0.00 0.00 1012.4
20260504100412 -17 0.0 0.0 0.00 0.00 0.00 1012.3
20260504081806 -17 0.0 0.0 0.00 0.00 0.00 1011.7
20260504081302 -17 0.0 0.0 0.00 0.00 0.00 1011.9
20260504080758 -17 0.0 0.0 0.00 0.00 0.00 1011.8
20260504080255 -17 0.0 0.0 0.00 0.00 0.00 1011.8
20260504070223 -17 0.0 0.0 0.00 0.00 0.00 1011.7
20260504060143 8 214 9.7 9.7 0.00 0.00 0.00 74 1011.2